Regional Weather Roundup
Issued by NWS Sioux Falls, SD

Home | Current Version | Previous Version | Text Only | Print | Product List | Glossary On
Versions: 1 2 3 4 5 6 7 8 9 10 11 12 13 14 15 16 17 18 19 20 21 22 23 24 25 26 27 28 29 30 31 32 33 34 35 36 37 38 39 40 41 42 43 44 45 46 47 48 49 50
000
ASUS43 KFSD 251202
RWRFSD

WEATHER ROUNDUP FOR SE SOUTH DAKOTA/SW MINNESOTA/NW IOWA
NATIONAL WEATHER SERVICE SIOUX FALLS SD
700 AM CDT MON JUL 25 2016

NOTE: "FAIR" INDICATES FEW OR NO CLOUDS BELOW 12,000 FEET WITH NO
SIGNIFICANT WEATHER AND OR OBSTRUCTIONS TO VISIBILITY.


SDZ038>040-050-052>070-251300-
SOUTHEAST SOUTH DAKOTA

CITY           SKY/WX    TMP DP  RH WIND       PRES   REMARKS
BROOKINGS      CLEAR     62  59  90 CALM      30.11R
CHAMBERLAIN    CLEAR     60  60  97 S3        30.11R
6HR MIN TEMP:  58; 6HR MAX TEMP:  67;

HURON          CLEAR     62  58  86 S5        30.08R
6HR MIN TEMP:  60; 6HR MAX TEMP:  68;

MADISON        FAIR      59  59 100 W3        30.12R
MITCHELL       CLEAR     61  59  93 SE3       30.11R
6HR MIN TEMP:  60; 6HR MAX TEMP:  70;

SIOUX FALLS    PTCLDY    64  58  80 SW3       30.12R
6HR MIN TEMP:  59; 6HR MAX TEMP:  68;

WINNER         FAIR      66  52  60 CALM      30.12R
YANKTON        CLEAR     61  57  88 CALM      30.11R
$$

MNZ071-072-080-081-089-090-097-098-251300-
SOUTHWEST MINNESOTA

CITY           SKY/WX    TMP DP  RH WIND       PRES   REMARKS
FAIRMONT       CLEAR     63  55  77 SW3       30.08R
JACKSON        CLEAR     63  59  88 CALM      30.11R
LUVERNE        CLEAR     55  54  94 CALM      30.12R
MARSHALL       CLEAR     63  59  87 SW5       30.09R
6HR MIN TEMP:  61; 6HR MAX TEMP:  65;

MONTEVIDEO     CLEAR     64  61  88 CALM      30.09R
REDWOOD FALLS  CLEAR     65  58  78 NW7       30.07R
TRACY          CLEAR     70  60  70 W5        30.09R
WINDOM         CLEAR     63  59  88 CALM      30.10R
WORTHINGTON    CLEAR     61  58  90 W5        30.12R
$$

IAZ001>003-012>014-020>022-031-032-NEZ013-014-SDZ071-251300-
NORTHWEST IOWA

CITY           SKY/WX    TMP DP  RH WIND       PRES   REMARKS
CHEROKEE       CLEAR     60  60 100 CALM      30.13R
ESTHERVILLE    CLEAR     61  60  97 SW5       30.11R
LE MARS        PTCLDY    61  59  94 S6        30.13R
SHELDON        FOG       57  57 100 CALM      30.11R VSB 3/4
SIOUX CITY     PTCLDY    63  61  93 CALM      30.12R
6HR MIN TEMP:  61; 6HR MAX TEMP:  69;

SPENCER        CLEAR     60  58  92 SW3       30.12R FOG
6HR MIN TEMP:  56; 6HR MAX TEMP:  64;

STORM LAKE     CLEAR     63  61  94 W5        30.13R
$$

ABBREVIATIONS USED IN REMARKS
   TC - TEMPERATURE IN CELSIUS
  WCI - WIND CHILL INDEX
   HX - HEAT INDEX
  VSB - VISIBILITY





USA.gov is the U.S. government's official web portal to all federal, state and local government web resources and services.